KB9TWL Weather Reports


Display with metric or nautical units.
time (UTC)temp
F
wind
direction
speed
MPH
gust
MPH
rain 1hr
in
rain 24hr
in
rain mn
in
humidity
%
barometer
mb
20260906133105 67 345 0.0 2.0 0.00 0.00 0.00 89 1020.9
20260906131519 66 345 1.0 2.0 0.00 0.00 0.00 91 1020.9
20260906130115 64 333 0.0 0.0 0.00 0.00 0.00 92 1021.0
20260906124538 64 333 0.0 0.0 0.00 0.00 0.00 91 1020.9
20260906123002 63 333 0.0 0.0 0.00 0.00 0.00 91 1020.6
20260906121547 63 333 0.0 0.0 0.00 0.00 0.00 92 1020.5
20260906120054 63 334 0.0 0.0 0.00 0.00 0.00 92 1020.5
20260906114535 62 360 0.0 0.0 0.00 0.00 0.00 92 1020.2
20260906113056 62 360 0.0 0.0 0.00 0.00 0.00 92 1019.9
20260906111529 63 335 0.0 0.0 0.00 0.00 0.00 92 1019.8
20260906110106 63 334 0.0 0.0 0.00 0.00 0.00 91 1019.8
20260906104517 63 334 0.0 2.0 0.00 0.00 0.00 91 1019.7
20260906103028 64 334 0.0 0.0 0.00 0.00 0.00 92 1019.5
20260906101508 63 334 0.0 2.0 0.00 0.00 0.00 92 1019.4
20260906100035 63 333 0.0 4.0 0.00 0.00 0.00 92 1019.6
20260906094602 63 80 0.0 2.0 0.00 0.00 0.00 92 1019.6
20260906093026 63 82 0.0 2.0 0.00 0.00 0.00 93 1019.6
20260906091603 63 81 0.0 0.0 0.00 0.00 0.00 92 1019.4
20260906090037 63 82 0.0 0.0 0.00 0.00 0.00 93 1019.3
20260906084552 63 82 0.0 1.0 0.00 0.00 0.00 93 1019.3
20260906083037 63 81 0.0 1.0 0.00 0.00 0.00 93 1019.3
20260906081559 63 81 0.0 0.0 0.00 0.00 0.00 93 1019.2
20260906080028 63 81 0.0 0.0 0.00 0.00 0.00 92 1019.2
20260906074604 63 78 0.0 0.0 0.00 0.00 0.00 92 1019.2
20260906073027 63 78 0.0 0.0 0.00 0.00 0.00 92 1019.0
20260906071509 63 76 0.0 0.0 0.00 0.00 0.00 91 1019.2
20260906070035 63 75 0.0 0.0 0.00 0.00 0.00 91 1019.4
20260906064600 64 73 0.0 0.0 0.00 0.00 0.00 90 1019.3
20260906063041 64 71 0.0 0.0 0.00 0.00 0.00 89 1019.5
20260906061552 65 71 0.0 0.0 0.00 0.00 0.00 89 1019.4
20260906060027 65 70 0.0 0.0 0.00 0.00 0.00 89 1019.4
20260906054550 65 70 0.0 0.0 0.00 0.00 0.00 89 1019.2
20260906053015 65 70 0.0 0.0 0.00 0.00 0.00 88 1019.2
20260906051542 66 70 0.0 0.0 0.00 0.00 0.00 88 1019.2
20260906050059 66 70 0.0 0.0 0.00 0.00 0.00 87 1018.9
20260906044512 66 70 0.0 1.0 0.00 0.00 0.00 89 1018.9
20260906043038 66 70 0.0 1.0 0.00 0.00 0.00 90 1018.8
20260906041603 66 70 0.0 0.0 0.00 0.00 0.00 90 1018.6
20260906040039 66 69 0.0 0.0 0.00 0.00 0.00 89 1018.4
20260906034514 67 360 0.0 0.0 0.00 0.00 0.00 88 1018.4
20260906033107 68 360 0.0 0.0 0.00 0.00 0.00 88 1018.5
20260906031535 68 81 0.0 0.0 0.00 0.00 0.00 87 1018.3
20260906030015 69 71 0.0 1.0 0.00 0.00 0.00 86 1018.2
20260906024532 69 71 0.0 2.0 0.00 0.00 0.00 86 1017.9
20260906023012 69 71 0.0 2.0 0.00 0.00 0.00 87 1017.7
20260906021555 69 71 0.0 2.0 0.00 0.00 0.00 86 1017.5
20260906020109 70 73 0.0 2.0 0.00 0.00 0.00 86 1017.5
20260906014542 70 98 1.0 4.0 0.00 0.00 0.00 86 1017.4
20260906013002 71 78 0.0 2.0 0.00 0.00 0.00 86 1017.4
20260906011525 71 57 0.0 0.0 0.00 0.00 0.00 85 1017.3
20260906010004 72 55 0.0 2.0 0.00 0.00 0.00 84 1017.2
20260906004532 72 50 0.0 2.0 0.00 0.00 0.00 83 1017.2
20260906003046 73 49 0.0 2.0 0.00 0.00 0.00 81 1017.2
20260906001515 74 43 0.0 4.0 0.00 0.00 0.00 80 1017.3
20260906000056 75 34 1.0 4.0 0.00 0.00 0.00 79 1017.1
20260905234517 75 34 1.0 5.0 0.00 0.00 0.00 78 1016.9
20260905233100 76 40 2.0 5.0 0.00 0.00 0.00 78 1017.0
20260905231524 77 13 1.0 4.0 0.00 0.00 0.00 77 1017.0
20260905230001 77 16 1.0 4.0 0.00 0.00 0.00 75 1017.0
20260905224548 77 40 2.0 7.0 0.00 0.00 0.00 77 1016.6
20260905223008 77 355 2.0 5.0 0.00 0.00 0.00 77 1016.7
20260905221536 77 321 0.0 5.0 0.00 0.00 0.00 78 1016.7
20260905214542 78 9 1.0 6.0 0.00 0.00 0.00 76 1016.5
20260905213100 78 21 2.0 5.0 0.00 0.00 0.00 77 1016.5
20260905211548 79 307 2.0 6.0 0.00 0.00 0.00 75 1016.4
20260905210108 78 321 1.0 6.0 0.00 0.00 0.00 76 1016.2
20260905204538 79 316 1.0 5.0 0.00 0.00 0.00 74 1016.2
20260905203015 79 329 1.0 5.0 0.00 0.00 0.00 75 1016.2
20260905201556 79 355 1.0 10.0 0.00 0.00 0.00 75 1016.2
20260905200032 78 333 2.0 7.0 0.00 0.00 0.00 77 1016.4
20260905194607 77 360 2.0 9.0 0.00 0.00 0.00 79 1016.6
20260905193031 77 302 1.0 7.0 0.00 0.00 0.00 80 1016.7
20260905191559 77 331 3.0 7.0 0.00 0.00 0.00 80 1016.7
20260905190017 76 344 2.0 6.0 0.00 0.00 0.00 81 1016.8
20260905184607 76 5 1.0 5.0 0.00 0.00 0.00 80 1016.9
20260905183025 76 315 2.0 6.0 0.00 0.00 0.00 82 1017.0
20260905181535 75 344 1.0 2.0 0.00 0.00 0.00 84 1017.0
20260905180007 75 306 1.0 5.0 0.00 0.00 0.00 85 1017.0
20260905174550 74 305 3.0 7.0 0.00 0.00 0.00 85 1016.9
20260905173028 74 328 0.0 4.0 0.00 0.00 0.00 86 1017.1
20260905171551 74 12 0.0 2.0 0.00 0.00 0.00 86 1017.1
20260905170014 74 12 0.0 2.0 0.00 0.00 0.00 86 1017.2
20260905164538 73 355 1.0 6.0 0.00 0.00 0.00 87 1017.2
20260905163014 72 336 1.0 4.0 0.00 0.00 0.00 89 1017.2
20260905161600 72 355 0.0 4.0 0.00 0.00 0.00 89 1017.3
20260905160028 73 316 1.0 6.0 0.00 0.06 0.00 89 1017.4
20260905154501 72 344 1.0 4.0 0.00 0.06 0.00 90 1017.1
20260905153023 72 355 1.0 4.0 0.00 0.06 0.00 90 1017.1
20260905151505 72 355 1.0 3.0 0.00 0.06 0.00 91 1016.9
20260905150030 72 73 1.0 4.0 0.00 0.12 0.00 92 1016.9
20260905144558 71 85 0.0 2.0 0.00 0.12 0.00 93 1016.6
20260905143037 71 76 4.0 6.0 0.00 0.12 0.00 93 1016.3
20260905141551 71 77 0.0 2.0 0.00 0.12 0.00 94 1016.4